TimeCDT,TemperatureF,Dew PointF,Humidity,Sea Level PressureIn,VisibilityMPH,Wind Direction,Wind SpeedMPH,Gust SpeedMPH,PrecipitationIn,Events,Conditions,WindDirDegrees,DateUTC
1:15 PM,73.4,59.0,61,29.94,10.0,SW,16.1,21.9,N/A,,Unknown,220,2013-04-23 18:15:00
1:35 PM,71.6,60.8,69,29.93,10.0,SSW,16.1,19.6,N/A,,Overcast,210,2013-04-23 18:35:00
1:55 PM,73.4,59.0,61,29.93,10.0,SSW,13.8,19.6,N/A,,Mostly Cloudy,210,2013-04-23 18:55:00
2:36 PM,73.4,60.8,65,29.92,10.0,SW,10.4,-,N/A,,Unknown,230,2013-04-23 19:36:00
2:55 PM,73.4,60.8,65,29.92,10.0,WSW,15.0,19.6,N/A,,Unknown,240,2013-04-23 19:55:00
3:15 PM,73.4,59.0,61,29.92,10.0,West,13.8,20.7,N/A,,Scattered Clouds,260,2013-04-23 20:15:00
3:35 PM,68.0,55.4,64,29.94,10.0,West,17.3,23.0,N/A,,Clear,270,2013-04-23 20:35:00
4:15 PM,62.6,51.8,68,29.94,10.0,West,11.5,20.7,N/A,,Scattered Clouds,280,2013-04-23 21:15:00
4:35 PM,60.8,50.0,68,29.94,10.0,West,13.8,24.2,N/A,,Mostly Cloudy,270,2013-04-23 21:35:00
4:55 PM,59.0,50.0,72,29.95,10.0,West,13.8,17.3,N/A,,Overcast,280,2013-04-23 21:55:00
5:15 PM,57.2,50.0,77,29.94,10.0,West,12.7,18.4,N/A,,Overcast,280,2013-04-23 22:15:00
5:35 PM,55.4,48.2,77,29.95,10.0,WNW,13.8,19.6,N/A,,Overcast,290,2013-04-23 22:35:00
5:55 PM,55.4,48.2,77,29.96,10.0,West,12.7,17.3,N/A,,Overcast,280,2013-04-23 22:55:00
6:15 PM,53.6,46.4,77,29.97,10.0,WNW,12.7,18.4,N/A,,Overcast,290,2013-04-23 23:15:00
6:35 PM,53.6,46.4,77,29.98,10.0,NW,12.7,-,N/A,,Overcast,310,2013-04-23 23:35:00
6:55 PM,51.8,44.6,76,29.99,10.0,WNW,12.7,19.6,N/A,,Overcast,290,2013-04-23 23:55:00
7:15 PM,50.0,42.8,76,30.00,10.0,WNW,12.7,19.6,N/A,,Overcast,300,2013-04-24 00:15:00
7:35 PM,50.0,42.8,76,30.00,10.0,WNW,12.7,19.6,N/A,,Overcast,290,2013-04-24 00:35:00
7:55 PM,46.4,41.0,81,30.01,10.0,NW,15.0,19.6,N/A,,Overcast,310,2013-04-24 00:55:00
8:15 PM,46.4,41.0,81,30.01,10.0,NW,15.0,20.7,N/A,,Overcast,310,2013-04-24 01:15:00
8:35 PM,46.4,41.0,81,30.02,10.0,NW,9.2,18.4,N/A,,Overcast,310,2013-04-24 01:35:00
8:55 PM,46.4,39.2,76,30.03,10.0,NW,13.8,20.7,N/A,,Overcast,310,2013-04-24 01:55:00
9:15 PM,44.6,39.2,81,30.04,10.0,NW,15.0,18.4,N/A,,Overcast,320,2013-04-24 02:15:00
9:35 PM,44.6,37.4,76,30.04,10.0,NNW,10.4,18.4,N/A,,Overcast,330,2013-04-24 02:35:00
9:55 PM,44.6,37.4,76,30.05,10.0,NW,10.4,-,N/A,,Overcast,320,2013-04-24 02:55:00
10:15 PM,44.6,37.4,76,30.06,10.0,NW,9.2,-,N/A,,Overcast,310,2013-04-24 03:15:00
10:35 PM,44.6,37.4,76,30.07,10.0,NW,12.7,19.6,N/A,,Overcast,310,2013-04-24 03:35:00
10:55 PM,44.6,37.4,76,30.07,10.0,NW,10.4,19.6,N/A,,Overcast,320,2013-04-24 03:55:00
11:15 PM,44.6,37.4,76,30.08,10.0,NW,11.5,-,N/A,,Overcast,310,2013-04-24 04:15:00
11:55 PM,42.8,37.4,81,30.08,10.0,NW,15.0,-,N/A,,Overcast,320,2013-04-24 04:55:00